GEOSCAN 3 (RS92S3)

Last updated on Mon Sep 21 2026 00:03:15 GMT+0000 (Coordinated Universal Time)

1 64893U 25155T 26263.57424987 .00014284 00000+0 37839-3 0 9994 2 64893 97.4645 234.8360 0005367 173.7287 186.4026 15.38450603 95500
UTC large
Height (km)
Speed (km/s)
/
Latitude / Longitude
Inclination (degrees)
Orbital Period (minutes)
Azimuth
Elevation
Range (km)
Doppler Factor

Next 0 passes for location: London (51.5072 / 0.1276)

No passes found over London.
GEOSCAN 3 (RS92S3)